LFPM 181530Z AUTO 11004KT CAVOK 23/14 Q1013

Les avions qui composent notre flotte

Avion Robin DR400-100

Avion école

(freins aux palonniers)

F-GGJG
   * tarif promotionnel appliqué pendant la formation des élèves non brevetés


F-GGJG Planche